Location: Hurstbourne Priors
(51.2000°N, 1.3667°W)
Time: 10:27:43
(UTC+00:00)

Vanguard 2 Rocket - Visible Passes

Search period start: 19 April 2021 00:00
Search period end: 29 April 2021 00:00
Orbit: 553 x 3326 km, 32.9° (Epoch: 18 April)

Date Brightness Start Highest point End Pass type
(mag) Time Alt. Az. Time Alt. Az. Time Alt. Az.
19 Apr 10.3 20:16:18 10° WSW 20:24:20 15° SW 20:30:58 10° SSW visible
21 Apr 10.5 20:34:47 10° WSW 20:36:28 10° SW 20:38:04 10° SW visible
22 Apr 10.5 19:26:41 10° W 19:36:46 17° SW 19:45:11 10° SSW visible
24 Apr 10.7 19:43:29 10° WSW 19:48:51 12° SW 19:53:48 10° SW visible
